Location: Antoign�
(47.0844°N, 0.1131°W)
Time: 23:47:38
(UTC+00:00)

Cosmos 1470 Rocket - Pass Details

Date: 03 March 2021
Orbit: 603 x 634 km, 82.5° (Epoch: 20 April)

Event Time Altitude Azimuth Distance (km) Brightness Sun altitude
Rises 18:34:59 0° 174° (S) 2,916 7.0 -8.6°
Reaches altitude 10° 18:37:15 10° 170° (S) 2,012 6.1 -9.0°
Maximum altitude 18:41:35 52° 94° (E) 785 3.7 -9.8°
Drops below altitude 10° 18:45:56 10° 18° (NNE) 2,016 6.0 -10.5°
Sets 18:48:12 0° 14° (NNE) 2,923 6.9 -10.9°
